Skip Page Navigation
NASA JPL Caltech
NASA Logo - Jet Propulsion Laboratory + View the NASA Portal
+ Center for Near-Earth Object Studies
JPL Home Earth Solar System Stars & Galaxies Technology
JPL Solar System Dynamics
BODIES ORBITS EPHEMERIDES TOOLS PHYSICAL DATA DISCOVERY FAQ SITE MAP
JPL Small-Body Database Browser
Search: [ help ]  
214188 (2005 EO11)
Classification: Main-belt Asteroid          SPK-ID: 2214188
Ephemeris | Orbit Diagram | Orbital Elements | Mission Design | Physical Parameters | Discovery Circumstances | Close-Approach Data ]

[ hide orbit diagram ]

For accurate long-term ephemerides, please instead use our Horizons system.This orbit viewer was implemented using two-body methods, and hence should not be used for determining accurate long-term trajectories (over several years or decades) or planetary encounter circumstances.


[ revert to old Java-based viewer ]

Orbital Elements at Epoch 2459000.5 (2020-May-31.0) TDB
Reference: JPL 15 (heliocentric ecliptic J2000)
 Element Value Uncertainty (1-sigma)   Units 
e .1090668108088743 5.862e-08  
a 2.387286649126295 1.2768e-08 au
q 2.126912907819486 1.3512e-07 au
i 2.252692525469082 4.3843e-06 deg
node 98.32554017319511 0.00014843 deg
peri 67.74809571023937 0.0001518 deg
M 36.82022725597875 2.6201e-05 deg
tp 2458862.703164332244
(2020-Jan-14.20316433)
9.835e-05 TDB
period 1347.271989809277
3.69
1.0809e-05
2.959e-08
d
yr
n .2672066239950276 2.1437e-09 deg/d
Q 2.647660390433105 1.4161e-08 au
  Orbit Determination Parameters
   # obs. used (total)      283  
   data-arc span      9568 days (26.20 yr)  
   first obs. used      1994-02-15  
   last obs. used      2020-04-27  
   planetary ephem.      DE431  
   SB-pert. ephem.      SB431-N16  
   condition code      0  
   norm. resid. RMS      .55573  
   source      ORB  
   producer      Otto Matic  
   solution date      2020-May-21 09:03:51  

Additional Information
 Earth MOID = 1.13519 au 
 Jupiter MOID = 2.32207 au 
 T_jup = 3.525 
[ show covariance matrix ]

Ephemeris | Orbit Diagram | Orbital Elements | Mission Design | Physical Parameters | Discovery Circumstances | Close-Approach Data ]

Physical Parameter Table
Parameter Symbol Value Units Sigma Reference Notes
absolute magnitude H 17.2   n/a MPO413068  

214188 (2005 EO11)          Discovered 2005-Mar-02 by CSS at Catalina
Reference: 20090509/Numbers.arcLast Updated: 2009-05-11

[ show close-approach data ]
Ephemeris | Orbit Diagram | Orbital Elements | Mission Design | Physical Parameters | Discovery Circumstances | Close-Approach Data ]
ABOUT SSD CREDITS/AWARDS PRIVACY/COPYRIGHT GLOSSARY LINKS
FirstGov 2020-Oct-26 04:18 UT
(server date/time)  
NASA Home Page
Site Manager:   Ryan S. Park
Webmaster  Alan B. Chamberlin